VK5TRM-14 Weather Reports


time (UTC)temp
C
wind
direction
speed
KPH
gust
KPH
rain 1hr
cm
rain 24hr
cm
rain mn
cm
humidity
%
barometer
mb
20260505064505 17 225 4.8 11.3 0.00 0.00 0.00 68 1023.0
20260505063005 16 225 4.8 11.3 0.00 0.00 0.00 69 1022.9
20260505061504 16 225 4.8 11.3 0.00 0.00 0.00 69 1022.9
20260505060005 16 225 9.7 16.1 0.00 0.00 0.00 69 1022.8
20260505054505 16 225 9.7 16.1 0.00 0.00 0.00 69 1022.8
20260505053005 16 225 9.7 12.9 0.00 0.00 0.00 66 1022.6
20260505051505 16 225 9.7 12.9 0.00 0.00 0.00 66 1022.6
20260505041505 16 247 8.0 11.3 0.00 0.00 0.00 70 1022.6
20260505040005 16 225 9.7 12.9 0.00 0.00 0.00 70 1022.8
20260505034505 16 225 9.7 12.9 0.00 0.00 0.00 70 1022.8
20260505033005 16 225 12.9 19.3 0.00 0.00 0.00 70 1023.0
20260505031505 16 225 12.9 19.3 0.00 0.00 0.00 70 1023.0
20260505030005 16 247 11.3 14.5 0.00 0.00 0.00 70 1023.4
20260505024505 16 247 11.3 14.5 0.00 0.00 0.00 70 1023.4
20260505023005 15 225 9.7 12.9 0.00 0.00 0.00 74 1023.6
20260505021505 15 225 9.7 12.9 0.00 0.00 0.00 74 1023.6
20260505020005 15 202 8.0 11.3 0.00 0.00 0.00 73 1023.8
20260505014505 15 202 8.0 11.3 0.00 0.00 0.00 73 1023.8
20260505013005 15 202 12.9 16.1 0.00 0.00 0.00 73 1023.6
20260505011505 15 202 12.9 16.1 0.00 0.00 0.00 73 1023.6
20260505010005 15 202 11.3 16.1 0.00 0.00 0.00 75 1023.4
20260505004505 15 202 11.3 16.1 0.00 0.00 0.00 75 1023.4
20260505003005 15 225 11.3 14.5 0.00 0.00 0.00 81 1023.4
20260505001505 15 225 11.3 14.5 0.00 0.00 0.00 81 1023.4
20260505000005 13 225 12.9 14.5 0.00 0.00 0.00 86 1023.2
20260504234505 13 225 12.9 14.5 0.00 0.00 0.00 86 1023.2
20260504233005 12 247 9.7 12.9 0.00 0.00 0.00 92 1023.2
20260504231505 12 247 9.7 12.9 0.00 0.00 0.00 92 1023.2
20260504230005 11 270 9.7 11.3 0.00 0.00 0.00 96 1022.9
20260504224505 11 270 9.7 11.3 0.00 0.00 0.00 96 1022.9
20260504223005 9 270 8.0 9.7 0.00 0.00 0.00 97 1022.4
20260504221505 9 270 8.0 9.7 0.00 0.00 0.00 97 1022.4
20260504220005 8 270 9.7 12.9 0.00 0.00 0.00 97 1022.0
20260504214505 8 270 9.7 12.9 0.00 0.00 0.00 97 1022.0
20260504213004 7 270 8.0 8.0 0.00 0.00 0.00 97 1021.5
20260504211505 7 270 8.0 8.0 0.00 0.00 0.00 97 1021.5
20260504210005 7 270 8.0 9.7 0.00 0.00 0.00 97 1021.2
20260504204505 7 270 8.0 9.7 0.00 0.00 0.00 97 1021.2
20260504203005 7 270 9.7 9.7 0.00 0.00 0.00 96 1021.1
20260504201505 7 270 9.7 9.7 0.00 0.00 0.00 96 1021.1
20260504200006 7 270 8.0 8.0 0.00 0.00 0.00 96 1020.9
20260504194505 7 270 8.0 8.0 0.00 0.00 0.00 96 1020.9
20260504193005 8 270 8.0 8.0 0.00 0.00 0.00 96 1020.6
20260504191505 8 270 8.0 8.0 0.00 0.00 0.00 96 1020.6
20260504190005 8 270 9.7 11.3 0.00 0.00 0.00 95 1020.4
20260504184505 8 270 9.7 11.3 0.00 0.00 0.00 95 1020.4
20260504183005 8 270 8.0 9.7 0.00 0.00 0.00 95 1020.4
20260504181505 8 270 8.0 9.7 0.00 0.00 0.00 95 1020.4
20260504180005 9 292 11.3 12.9 0.00 0.00 0.00 94 1020.3
20260504174505 9 292 11.3 12.9 0.00 0.00 0.00 94 1020.3
20260504173005 8 270 9.7 11.3 0.00 0.00 0.00 94 1020.4
20260504171506 8 270 9.7 11.3 0.00 0.00 0.00 94 1020.4
20260504081505 17 315 14.5 20.9 0.00 0.00 0.00 60 1015.7